Home > Weather > Kingston > Past weeks

Flag for Canada Weather for the Past 2 Weeks in Kingston, Ontario, Canada

Now
9 °F

Scattered clouds.


Feels Like: -9 °F
Forecast: N/A
Wind: 16 mph from Northwest

Location: Kingston

Current Time: Feb 11, 2016 at 4:52:44 PM

Latest Report: Feb 11, 2016 at 4:00 PM


Visibility: 15 mi

Pressure: 30.05 "Hg

Humidity: 47%

Dew point: -8 °F

Location of KingstonLocation

Historic Weather in Kingston — Graph

°F

Kingston Temperature Yesterday

Maximum temperature yesterday: 27 °F (at 3:00 PM)
Minimum temperature yesterday: 18 °F (at 10:00 PM)
Average temperature yesterday: 22 °F

High & Low Weather Summary for the Past Weeks

 TemperatureHumidityPressure
High46 °F (Feb 3, 7:00 PM)93% (Jan 29, 6:00 AM)30.40 "Hg (Jan 29, 6:00 AM)
Low1 °F (Feb 11, 8:00 AM)40% (Feb 5, 3:00 PM)29.46 "Hg (Jan 29, 6:00 AM)
Average30 °F73%29.88 "Hg
* Reported Jan 27 3:00 PM — Feb 11 3:00 PM, Kingston, Weather by CustomWeather, © 2016

Note: Actual official high and low records may vary slightly from our data, if they occured in-between our weather recording intervals... More about our weather records

Advertising

Kingston Weather History for the Previous 24 Hours

 ConditionsComfort  
Time TempWeatherWind HumidityBarometerVisibility
3:00 PM
Thu, Feb 11
7 °FLight snow. Broken clouds.12 mph47%30.03 "Hg15 mi
2:00 PM5 °FLight snow. Broken clouds.15 mph51%30.01 "Hg12 mi
1:00 PM5 °FLight snow. Partly sunny.14 mph51%29.99 "Hg12 mi
12:50 PM5 °FScattered flurries. Broken clouds.15 mph51%29.99 "Hg12 mi
12:00 PM3 °FLight snow. Broken clouds.14 mph55%29.99 "Hg12 mi
11:00 AM3 °FLight snow. Partly sunny.14 mph55%29.98 "Hg8 mi
10:00 AM3 °FLight snow. Partly sunny.15 mph60%29.95 "Hg8 mi
9:00 AM1 °FBroken clouds.13 mph65%29.93 "Hg10 mi
8:00 AM1 °FScattered flurries. Broken clouds.12 mph65%29.91 "Hg10 mi
7:00 AM3 °FPassing clouds.14 mph72%29.86 "Hg15 mi
6:00 AM5 °FLight snow. Passing clouds.13 mph72%29.83 "Hg10 mi
11:00 PM
Wed, Feb 10
18 °FLight snow. Overcast.12 mph73%29.75 "Hg10 mi
10:00 PM18 °FLight snow. Overcast.9 mph73%29.73 "Hg10 mi
9:00 PM19 °FPassing clouds.8 mph73%29.71 "Hg15 mi
8:00 PM21 °FLight snow. Partly cloudy.14 mph74%29.70 "Hg15 mi
7:00 PM23 °FLight snow. Mostly cloudy.12 mph80%29.70 "Hg8 mi
6:00 PM25 °FLight snow. Mostly cloudy.8 mph80%29.68 "Hg2 mi
5:00 PM25 °FLight snow. Overcast.7 mph74%29.66 "Hg10 mi
4:00 PM27 °FLight snow. Overcast.6 mph69%29.64 "Hg10 mi
Weather by CustomWeather, © 2016

See weather overviewHow to use our weather pages